CST,Max TemperatureF,Mean TemperatureF,Min TemperatureF,Max Dew PointF,MeanDew PointF,Min DewpointF,Max Humidity, Mean Humidity, Min Humidity, Max Sea Level PressureIn, Mean Sea Level PressureIn, Min Sea Level PressureIn, Max VisibilityMiles, Mean VisibilityMiles, Min VisibilityMiles, Max Wind SpeedMPH, Mean Wind SpeedMPH, Max Gust SpeedMPH,PrecipitationIn, CloudCover, Events, WindDirDegrees
2012-11-1,60,42,24,36,24,18,86,54,19,30.05,29.99,29.96,10.0,10.0,10.0,10,2,,0.00,1,,296
2012-11-2,68,52,37,45,38,30,87,62,35,30.05,29.99,29.95,10.0,10.0,9.0,13,3,,0.00,0,,284
2012-11-3,78,58,37,57,45,34,94,67,39,30.10,30.03,29.94,10.0,9.9,5.0,20,3,21,0.00,1,,228
2012-11-4,59,46,32,57,39,30,94,83,71,30.15,30.10,30.03,10.0,9.9,6.0,13,6,,0.00,3,,344
2012-11-5,55,42,28,39,34,27,100,77,44,30.13,30.07,30.01,10.0,9.9,6.0,8,2,,0.00,2,,5
2012-11-6,48,44,41,45,43,39,100,92,82,30.02,29.98,29.94,10.0,8.0,3.0,6,2,,0.00,8,,337
2012-11-7,48,44,39,43,40,37,100,85,66,30.12,29.99,29.90,10.0,9.4,3.0,13,6,,0.00,7,,320
2012-11-8,55,42,30,39,36,30,100,83,51,30.25,30.20,30.13,10.0,7.4,0.2,8,3,,0.00,1,,353
2012-11-9,64,46,28,41,35,27,100,67,32,30.31,30.24,30.20,10.0,8.7,0.2,8,2,,0.00,0,,182
2012-11-10,69,52,35,46,38,34,100,59,28,30.34,30.27,30.22,10.0,10.0,10.0,10,4,,0.00,0,,173
2012-11-11,68,54,39,48,42,34,81,56,37,30.33,30.24,30.16,10.0,10.0,10.0,20,9,28,0.00,0,,158
2012-11-12,62,46,30,57,45,28,100,88,63,30.42,30.27,30.12,10.0,7.5,1.5,25,11,29,0.00,5,,335
2012-11-13,48,38,28,28,26,21,93,64,34,30.48,30.41,30.35,10.0,10.0,10.0,13,5,,0.00,0,,24
2012-11-14,53,42,30,34,29,25,93,68,41,30.40,30.33,30.28,10.0,10.0,10.0,8,4,,0.00,0,,23
2012-11-15,55,40,26,36,29,23,93,70,33,30.33,30.29,30.25,10.0,9.9,5.0,8,2,,0.00,0,,339
2012-11-16,57,42,26,34,28,23,93,61,29,30.36,30.33,30.29,10.0,10.0,10.0,10,3,,0.00,0,,17
2012-11-17,60,44,28,34,30,25,93,64,31,30.45,30.39,30.36,10.0,9.8,6.0,9,2,,0.00,0,,350
2012-11-18,62,45,28,36,29,25,93,63,26,30.43,30.37,30.33,10.0,9.8,3.0,7,1,,0.00,0,,28
2012-11-19,62,47,32,41,35,28,87,68,39,30.34,30.28,30.21,10.0,10.0,9.0,8,1,,0.00,0,,336
2012-11-20,66,54,42,46,42,37,87,62,37,30.21,30.15,30.09,10.0,10.0,10.0,8,1,,0.00,5,,258
2012-11-21,66,52,37,46,42,36,93,74,49,30.22,30.18,30.12,10.0,9.8,3.0,9,2,,0.00,1,,351
2012-11-22,66,50,33,46,38,30,93,71,37,30.25,30.20,30.16,10.0,9.5,0.5,14,2,,0.00,0,,209
2012-11-23,55,45,35,48,36,25,93,72,40,30.21,30.16,30.13,10.0,9.9,4.0,14,4,,0.00,3,,317
2012-11-24,39,31,23,25,20,18,80,65,45,30.28,30.21,30.14,10.0,9.9,5.0,12,7,,0.00,0,,342
2012-11-25,55,37,19,25,20,16,93,54,25,30.16,30.11,30.04,10.0,10.0,10.0,12,3,,0.00,0,,196
2012-11-26,62,50,39,48,35,21,100,59,34,30.18,30.13,30.09,10.0,9.9,5.0,13,3,,0.00,7,,183
2012-11-27,48,42,35,48,38,30,100,92,75,30.32,30.23,30.11,10.0,7.4,0.2,13,7,,0.00,8,,2
2012-11-28,48,37,26,30,27,23,87,72,37,30.46,30.39,30.32,10.0,9.9,8.0,8,4,,0.00,3,,15
2012-11-29,57,40,23,30,26,19,93,65,31,30.42,30.35,30.30,10.0,10.0,9.0,8,2,,0.00,0,,192
2012-11-30,60,45,30,45,36,25,93,70,45,30.35,30.29,30.23,10.0,10.0,8.0,16,4,,0.00,2,,188